Regional Weather Roundup
Issued by NWS

Home | Current Version | Previous Version | Text Only | Print | Product List | Glossary On
Versions: 1 2 3 4 5 6 7 8 9 10 11 12 13 14 15 16 17 18 19 20 21 22 23 24 25 26 27 28 29 30 31 32 33 34 35 36 37 38 39 40 41 42 43 44 45 46 47 48 49 50
000
ASUS43 KMKX 240821
RWRWI

WISCONSIN REGIONAL WEATHER ROUNDUP
NATIONAL WEATHER SERVICE MILWAUKEE/SULLIVAN WI
300 AM CDT MON JUL 24 2017

NOTE: "FAIR" INDICATES FEW OR NO CLOUDS BELOW 12,000 FEET WITH NO
SIGNIFICANT WEATHER AND/OR OBSTRUCTIONS TO VISIBILITY.

WIZ001-002-006>008-014>016-023>028-240900-
NORTHWEST WISCONSIN

CITY           SKY/WX    TMP DP  RH WIND       PRES   REMARKS
SUPERIOR ARPT  NOT AVBL
ASHLAND        FOG       55  55 100 CALM      30.07S VSB 3/4
HAYWARD        FOG       50  48  93 NE3       30.06R VSB 1/4
SIREN          FOG       51  50  97 CALM      30.05S VSB 1/2
CUMBERLAND     CLEAR     52  52 100 CALM      30.05S
RICE LAKE      CLEAR     54  53  95 N3        30.06R FOG
CHETEK         CLEAR     58  56  95 CALM      30.04S
LADYSMITH      CLEAR     54  53  97 N3        30.06R
EAU CLAIRE     CLEAR     56  55  97 N5        30.02R
MENOMONIE      CLEAR     58  55  90 CALM      30.04R
NEW RICHMOND   CLEAR     55  54  98 CALM      30.04S
OSCEOLA        MOCLDY    54  54 100 CALM      30.07S FOG
$$

WIZ003>005-009-010-017-018-240900-
NORTH CENTRAL WISCONSIN

CITY           SKY/WX    TMP DP  RH WIND       PRES   REMARKS
MANITOWISH WTR CLOUDY    53  53 100 CALM      30.06S
ARBOR VITAE    MOCLDY    57  56  97 NE5       30.05S
WOODRUFF       MOCLDY    57  56  97 NE5       30.05S
RHINELANDER    MOCLDY    52  52 100 CALM      30.05S
EAGLE RIVER    CLEAR     49  49 100 CALM      30.05S
LAND O LAKES   FOG       51  51 100 CALM      30.08S VSB<1/4
PHILLIPS       CLEAR     50  50 100 NE3       30.04S
TOMAHAWK       FOG       48  47  97 CALM      30.05R VSB 1/2
MEDFORD        CLEAR     52  51  96 NE3       30.03R
MERRILL        NOT AVBL
$$

WIZ029-030-035-036-043>047-240900-
CENTRAL WISCONSIN

CITY           SKY/WX    TMP DP  RH WIND       PRES   REMARKS
WAUSAU         CLEAR     56  54  93 N6        30.01S
MOSINEE        MOCLDY    55  54  94 N6        30.04R
MARSHFIELD     CLEAR     56  52  86 NE6       30.02R
STEVENS POINT  CLOUDY    56  55  93 NE7       30.02R
WAUPACA        CLOUDY    63  56  77 NE7       30.01R
WAUTOMA        CLOUDY    62  55  77 VRB6      30.01R
WISC RAPIDS    MOCLDY    59  54  83 E7        30.03R
CAMP DOUGLAS   PTCLDY    52  52 100 NE3       30.01R FOG
$$

WIZ011>013-019>022-031-037>040-048>050-240900-
NORTHEAST WISCONSIN

CITY           SKY/WX    TMP DP  RH WIND       PRES   REMARKS
ANTIGO         CLOUDY    54  53  95 NE8       30.04R
SHAWANO        CLOUDY    62  55  80 N9        30.01R
OCONTO         CLOUDY    60  55  83 N6        29.99R
STURGEON BAY     N/A     61  57  87 N10       29.99R
GREEN BAY      CLOUDY    62  58  86 N8        29.99R
MANITOWOC      CLOUDY    62  57  83 N8        29.97R
APPLETON       CLOUDY    59  52  77 N10       29.98R
CLINTONVILLE   CLOUDY    61  54  77 N7        30.01S
OSHKOSH        CLOUDY    63  56  78 N12       29.97S
$$

WIZ032>034-041-042-053>061-240900-
SOUTHWEST WISCONSIN

CITY           SKY/WX    TMP DP  RH WIND       PRES   REMARKS
LA CROSSE      PTCLDY    64  60  87 N5        30.00R
SPARTA         CLEAR     54  54 100 CALM      30.02S
VIROQUA        CLEAR     58  58 100 CALM      30.01S
BOSCOBEL       CLEAR     63  60  90 CALM      29.98R
PRAIRIE DU CHI CLEAR     63  58  81 NW3       29.98R
PLATTEVILLE    MOCLDY    63  63 100 N6        29.97S
$$

WIZ056-057-062-063-064-067-068-240900-
SOUTH CENTRAL WISCONSIN

CITY           SKY/WX    TMP DP  RH WIND       PRES   REMARKS
REEDSBURG      CLOUDY    60  57  89 N3        29.99S
BARABOO/DELLS  CLOUDY    61  54  77 NE7       29.99S
LONE ROCK      PTCLDY    63  57  81 NE6       29.98R
MINERAL POINT  CLEAR     63  61  94 NE7       29.97S
MADISON        MOCLDY    60  57  89 N7        29.97S
MIDDLETON      PTCLDY    59  58  96 NE3       29.99R
WATERTOWN      CLOUDY    63  59  88 N6        29.96S
MONROE         CLOUDY    63  59  88 NE9       29.96R
JANESVILLE     CLOUDY    64  59  82 N7        29.95R
$$

WIZ051-052-058>065-066-070>072-240900-
SOUTHEAST WISCONSIN

CITY           SKY/WX    TMP DP  RH WIND       PRES   REMARKS
MILWAUKEE      CLOUDY    65  59  81 N10       29.95R
WAUKESHA       PTCLDY    59  55  88 NW3       29.97S
MILWAUKEE/TIMM CLOUDY    61  55  82 N6        29.96S
RACINE         CLOUDY    65  61  87 N10       29.96S
KENOSHA        MOCLDY    65  60  84 N7        29.94S
FOND DU LAC    CLOUDY    65  55  70 NE13      29.97S
SHEBOYGAN      CLOUDY    62  60  93 N8        29.96S
WEST BEND      CLOUDY    61  59  94 N6        29.97S
JUNEAU         CLOUDY    63  56  80 NE3       29.98R
$$

LSZ147-162-240900-
LAKE SUPERIOR

STATION/POSITION TIME  TEMP    WIND        PRES    WAVE
                       AIR SEA DIR/SP/G            HT/PER
                 (UTC) (F)     (DEG/KT/KT) (MB)    (FT/S)
W MID LAKE BUOY  0750   51 48  250/  4/  4 1018.1R   1
DEVILS ISLAND    0800   54     230/  5/  6 1018.1S
SAXON HARBOR     0740   57     180/  3/  4 1017.6R
$$

LMZ867-665-643>646-240900-
LAKE MICHIGAN

STATION/POSITION TIME  TEMP    WIND        PRES    WAVE
                       AIR SEA DIR/SP/G            HT/PER
                 (UTC) (F)     (DEG/KT/KT) (MB)    (FT/S)
CHAMBERS ISLAND  0740   62      20/ 14/ 16 1014.9R
S GREEN BAY BUOY 0800   64 72  360/ 16/ 19 1015.1
N MID LAKE BUOY  0750   62 66   50/ 16/ 19 1014.9S   4/ 5
NORTHPORT PIER   0740   61      20/  9/ 11 1015.2R
KEWAUNEE LAKESHO 0754   62     350/  5/  9 1014.2R
SHEBOYGAN LAKESH 0800   64      10/ 18/ 21 1014.0R
PORT WASHINGTON  0740   65     350/  4/  7 1014.9S
ATWATER BUOY     0739   66 67  360/ 12/ 14 1014.1R
MILWAUKEE LAKESH 0750   64     340/  8/  9   N/A
S MID LAKE BUOY  0750   67 70  360/ 17/ 19 1012.6R   5/ 6
KENOSHA   LAKESH 0800   66     360/ 13/ 18 1013.5
$$

TC  - TEMPERATURE IN CELSIUS
VSB - VISIBILITY IN STATUTE MILES
WCI - WIND CHILL INDEX
HX  - HEAT INDEX





USA.gov is the U.S. government's official web portal to all federal, state and local government web resources and services.